#timestamp,LO_Frequency,Hit,StdDev 
1526461215.5,286047000.2,N
1526461235.3,286046998.5,P
1526461255.2,286047001.0,N
1526461275.0,286046998.6,N
1526461275.9,286046998.6,N
1526461295.7,286046998.3,N
1526461315.6,286047001.1,N
1526461335.4,286046998.8,N
1526461355.3,286046998.4,N
1526461375.1,286046998.7,N
1526461395.8,286046999.3,N
1526461415.7,286046996.9,Y
1526461435.5,286046999.0,P
1526461455.4,286046998.8,P
1526461475.2,286046998.2,P
1526461495.0,286046998.9,N
1526461495.9,286046998.9,N
1526461515.8,286046998.7,Y
1526461535.6,286046998.1,P
1526461555.5,286046999.0,N
1526461575.3,286046998.3,P
1526461595.1,286047001.2,Y
1526461615.9,286047002.6,P
1526461635.7,286047002.3,N
1526461655.5,286047002.5,N
1526461675.4,286047000.1,N
1526461695.2,286046999.7,N
1526461715.1,286047000.0,N
1526461716.0,286047000.0,N
1526461735.8,286047002.1,N
1526461755.6,286046999.9,N
1526461775.5,286047000.1,N
1526461795.3,286047000.2,N
1526461815.1,286047002.8,N
1526461835.9,286047002.6,N
1526461855.7,286047002.1,N
1526461875.6,286047002.8,N
1526461895.4,286047002.6,N
1526461915.2,286047001.6,N
1526461935.1,286047002.0,N
1526461936.0,286047002.0,N
1526461955.8,286047002.6,N
1526461975.7,286046999.7,N
1526461995.5,286047000.1,N
1526462015.3,286047000.0,N
1526462035.2,286047001.7,N
1526462055.0,286047003.9,Y
1526462055.9,286047003.9,P
1526462075.8,286047001.4,N
1526462095.6,286047001.6,N
1526462115.4,286047000.0,N
1526462135.3,286047000.0,N
1526462155.1,286047000.3,N
1526462175.8,286047002.5,N
1526462195.7,286047000.4,N
1526462215.5,286047000.8,N
1526462235.3,286046998.7,N
1526462255.2,286046999.2,N
1526462275.0,286046996.9,N
1526462275.9,286046996.9,N
1526462295.8,286046997.2,N
1526462315.6,286046998.1,N
1526462335.4,286047000.0,N
1526462355.3,286047002.8,N
1526462375.1,286047000.2,N
1526462395.8,286047000.9,N
1526462415.7,286047000.1,N
1526462435.5,286047000.2,N
1526462455.4,286047001.7,N
1526462475.2,286047001.8,N
1526462495.0,286047002.5,N
1526462495.9,286047002.5,N
1526462515.8,286047004.4,N
1526462535.6,286047001.5,N
1526462555.4,286047002.6,N
1526462575.3,286047000.1,N
1526462595.1,286047000.3,N
1526462615.9,286047000.4,N
1526462635.7,286047000.5,N
1526462655.5,286047002.6,N
1526462675.4,286047002.7,N
1526462695.2,286046999.7,N
1526462745.1,286047000.2,E
1526462755.9,286047001.9,N
1526462775.7,286047002.0,P
1526462795.6,286047004.3,P
1526462815.4,286047003.9,Y
1526462835.3,286047001.1,P
1526462855.1,286047001.0,N
1526462856.0,286047001.0,N
1526462875.8,286046996.5,Y
1526462895.7,286046995.0,P
1526462915.5,286046995.0,N
1526462935.3,286046997.6,N
1526462955.2,286046996.9,N
1526462975.0,286046997.6,N
1526462975.9,286046997.6,N
1526462995.8,286046997.6,N
1526463015.6,286046995.8,N
1526463035.4,286046993.3,Y
1526463055.3,286046997.2,P
1526463075.1,286046998.0,P
1526463095.8,286046997.2,P
1526463115.7,286046999.1,N
1526463135.6,286046998.7,N
1526463155.4,286046999.3,N
1526463175.2,286046999.6,N
1526463195.1,286046999.4,N
1526463196.0,286046999.4,N
1526463215.8,286046996.8,Y
1526463235.7,286046998.9,P
1526463255.5,286046999.4,P
1526463275.3,286046998.3,P
1526463295.2,286047001.0,N
1526463315.0,286046998.7,N
1526463315.9,286046998.7,N
1526463335.8,286046998.7,N
1526463355.6,286046998.4,N
1526463375.4,286047001.1,N
1526463395.3,286046999.7,N
1526463415.1,286047002.8,N
1526463435.8,286047001.0,N
1526463455.7,286047000.5,N
1526463475.5,286047000.0,N
1526463495.4,286047000.6,N
1526463515.2,286047000.3,N
1526463535.0,286047002.4,N
1526463535.9,286047002.4,N
1526463555.8,286047002.2,N
1526463575.6,286047002.4,N
1526463595.4,286047001.7,N
1526463615.3,286047004.3,N
1526463635.1,286047002.0,N
1526463655.9,286047003.6,N
1526463675.7,286047003.1,N
1526463695.5,286047004.1,N
1526463715.4,286047001.3,N
1526463735.2,286047002.8,N
1526463755.0,286047002.7,N
1526463755.9,286047002.7,N
1526463775.8,286047000.0,N
1526463795.6,286047000.3,N
1526463815.5,286047000.4,N
1526463835.3,286047000.8,N
1526463855.1,286047000.6,N
1526463875.9,286047000.4,N
1526463895.7,286047002.7,N
1526463915.5,286047004.0,N
1526463935.4,286047005.8,Y
1526463955.2,286046999.8,P
1526463975.1,286047002.0,N
1526463976.0,286047002.0,N
1526463995.8,286047002.7,N
1526464015.6,286047003.8,Y
1526464035.5,286047000.5,P
1526464055.3,286047002.8,P
1526464075.1,286047002.5,N
1526464095.9,286047000.0,N
1526464115.7,286047000.6,N
1526464135.6,286047002.6,N
1526464155.4,286046999.7,N
1526464175.2,286047001.6,N
1526464195.1,286047002.2,N
1526464196.0,286047002.2,N
1526464215.8,286047002.1,N
1526464235.6,286047001.2,N
1526464255.5,286047002.4,N
1526464275.3,286047000.4,N
1526464295.2,286047003.6,Y
1526464315.9,286047000.7,P
1526464335.7,286047000.0,N
1526464355.6,286047000.3,N
1526464375.4,286047000.9,N
1526464395.2,286047000.0,N
1526464415.1,286047002.8,Y
1526464416.0,286047002.8,P
1526464435.8,286047002.8,N
1526464455.7,286047002.3,N
1526464475.5,286047001.4,N
1526464495.3,286047003.9,Y
1526464515.2,286047000.8,P
1526464535.0,286047001.2,N
1526464535.9,286047001.2,N
1526464555.8,286047001.2,N
1526464575.6,286047001.2,Y
1526464595.4,286046996.5,P
1526464615.3,286046996.7,N
1526464635.1,286046999.5,N
1526464655.8,286046996.6,N
1526464675.7,286046997.5,N
1526464695.5,286046997.7,N
1526464715.4,286046995.6,N
1526464735.2,286046996.0,N
1526464755.0,286046996.2,N
1526464755.9,286046996.2,N
1526464775.8,286046993.5,Y
1526464795.6,286046997.5,P
